Weather History for Mineral Wells, TX

Change the Weather History Date:

Sunday, November 18, 2012

  Actual Average Record
Temperature  
Mean Temperature 60 °F -  
Max Temperature 71 °F 64 °F 80 °F (1999)
Min Temperature 48 °F 43 °F 30 °F (2005)
Degree Days  
Heating Degree Days 6    
Growing Degree Days 10 (Base 50)    
Moisture  
Dew Point 36 °F    
Average Humidity 44    
Maximum Humidity 56    
Minimum Humidity 27    
Precipitation  
Precipitation 0.00 in - - ()
Sea Level Pressure  
Sea Level Pressure 30.19 in    
Wind  
Wind Speed 10 mph (SSE)    
Max Wind Speed 17 mph    
Max Gust Speed 24 mph    
Visibility 10 miles    
Events      
Averages and records for this station are not official NWS values.
T = Trace of Precipitation, MM = Missing Value Source: NWS Daily Summary

Daily Weather History Graph

Daily Weather History Graph

Search for Another Location

Airport:

Trip Planner

Search our weather history database for the weather conditions in past years. The results will help you decide how hot, cold, wet, or windy it might be!

Date:

Astronomy

Nov. 18, 2012 Rise Set
Actual Time 7:05 AM CST 5:29 PM CST
Civil Twilight 6:39 AM CST 5:55 PM CST
Nautical Twilight 6:09 AM CST 6:25 PM CST
Astronomical Twilight 5:39 AM CST 6:54 PM CST
Moon 11:36 AM CST (11/18) 10:45 PM CST (11/18)
Length of Visible Light 11h 16m
Length of Day
10h 23m
Waxing Crescent, 30% of the Moon is Illuminated
Nov 18
Waxing Crescent
Nov 20
First Quarter
Nov 28
Full
Dec 6
Last Quarter
Dec 13
New

Hourly Weather History & Observations

Time (CST) Temp. Dew Point Humidity Pressure Visibility Wind Dir Wind Speed Gust Speed Precip Events Conditions
12:53 AM 48.9 °F 30.9 °F 50% 30.25 in 10.0 mi SE 9.2 mph - N/A   Clear
1:53 AM 50.0 °F 32.0 °F 50% 30.23 in 10.0 mi SE 8.1 mph - N/A   Overcast
2:53 AM 48.0 °F 32.0 °F 54% 30.22 in 10.0 mi SE 8.1 mph - N/A   Scattered Clouds
3:53 AM 50.0 °F 33.1 °F 52% 30.21 in 10.0 mi SE 8.1 mph - N/A   Overcast
4:53 AM 50.0 °F 33.1 °F 52% 30.22 in 10.0 mi SE 8.1 mph - N/A   Overcast
5:53 AM 50.0 °F 33.1 °F 52% 30.23 in 10.0 mi SE 8.1 mph - N/A   Overcast
6:53 AM 51.1 °F 33.1 °F 50% 30.22 in 10.0 mi SE 9.2 mph - N/A   Overcast
7:53 AM 51.1 °F 34.0 °F 52% 30.24 in 10.0 mi SE 10.4 mph - N/A   Overcast
8:53 AM 55.0 °F 36.0 °F 49% 30.25 in 10.0 mi SE 9.2 mph - N/A   Mostly Cloudy
9:53 AM 57.0 °F 35.1 °F 44% 30.25 in 10.0 mi South 9.2 mph - N/A   Scattered Clouds
10:53 AM 59.0 °F 36.0 °F 42% 30.25 in 10.0 mi SE 10.4 mph - N/A   Clear
11:53 AM 64.9 °F 35.1 °F 33% 30.21 in 10.0 mi SE 12.7 mph 20.7 mph N/A   Clear
12:53 PM 70.0 °F 35.1 °F 28% 30.16 in 10.0 mi SSE 12.7 mph 19.6 mph N/A   Clear
1:53 PM 71.1 °F 35.1 °F 27% 30.13 in 10.0 mi South 13.8 mph - N/A   Clear
2:53 PM 69.1 °F 35.1 °F 29% 30.14 in 10.0 mi South 17.3 mph 24.2 mph N/A   Clear
3:53 PM 68.0 °F 36.0 °F 31% 30.14 in 10.0 mi SSE 12.7 mph 20.7 mph N/A   Clear
4:53 PM 66.9 °F 35.1 °F 31% 30.13 in 10.0 mi SSE 10.4 mph - N/A   Clear
5:53 PM 64.9 °F 37.0 °F 36% 30.15 in 10.0 mi SSE 10.4 mph - N/A   Scattered Clouds
6:53 PM 64.0 °F 37.9 °F 38% 30.16 in 10.0 mi SSE 9.2 mph - N/A   Clear
7:53 PM 61.0 °F 37.9 °F 42% 30.17 in 10.0 mi SE 8.1 mph - N/A   Clear
8:53 PM 59.0 °F 39.9 °F 49% 30.17 in 10.0 mi SSE 9.2 mph - N/A   Clear
9:53 PM 59.0 °F 41.0 °F 51% 30.17 in 10.0 mi SSE 9.2 mph - N/A   Clear
10:53 PM 57.0 °F 41.0 °F 55% 30.16 in 10.0 mi SSE 9.2 mph - N/A   Partly Cloudy
11:53 PM 57.9 °F 42.1 °F 56% 30.15 in 10.0 mi SSE 10.4 mph - N/A   Overcast